Weather History for EIME - May, 2014

Change the Weather History Date:

Wednesday, May 14, 2014

  Actual Average (EIDW) Record (EIDW)
Temperature  
Mean Temperature 52 °F -  
Max Temperature 60 °F 58 °F 62 °F (1998)
Min Temperature 44 °F 45 °F 37 °F (2003)
Degree Days  
Heating Degree Days 13    
Growing Degree Days 2 (Base 50)    
Moisture  
Dew Point 49 °F    
Average Humidity 84    
Maximum Humidity 100    
Minimum Humidity 72    
Precipitation  
Precipitation 0.00 in - - ()
Sea Level Pressure  
Sea Level Pressure 30.47 in    
Wind  
Wind Speed 9 mph ()    
Max Wind Speed 18 mph    
Max Gust Speed -    
Visibility 6.8 miles    
Events Rain    
Averages and records for this station are not official NWS values.
T = Trace of Precipitation, MM = Missing Value Source: Averaged Metar Reports

Daily Weather History Graph

Daily Weather History Graph

Search for Another Location

Airport or City:

Trip Planner

Search our weather history database for the weather conditions in past years. The results will help you decide how hot, cold, wet, or windy it might be!

Date:

Astronomy

May. 14, 2014 Rise Set
Actual Time 5:28 AM IST 9:17 PM IST
Civil Twilight 4:44 AM IST 10:01 PM IST
Nautical Twilight 3:42 AM IST 11:03 PM IST
Astronomical Twilight 1:42 AM IST 12:49 AM IST
Moon 9:02 PM IST (5/14) 5:26 AM IST (5/14)
Length of Visible Light 17h 17m
Length of Day
15h 49m
Full, 100% of the Moon is Illuminated
May 14
Full
May 14
Full
May 21
Last Quarter
May 28
New
Jun 5
First Quarter

Hourly Weather History & Observations

Time (IST) Temp. Windchill Dew Point Humidity Pressure Visibility Wind Dir Wind Speed Gust Speed Precip Events Conditions
12:00 AM 48 °F - 45 °F 87% 30.38 in 25 mi West 6.7 mph - -   Mostly Cloudy
12:00 AM 48.2 °F - 44.6 °F 87% 30.36 in 6.2 mi West 9.2 mph - N/A   Mostly Cloudy
1:00 AM 46 °F - 44 °F 89% 30.40 in 25 mi WSW 8.9 mph - -   Partly Cloudy
1:00 AM 46.4 °F 42.4 °F 42.8 °F 87% 30.39 in 6.2 mi WSW 8.1 mph - N/A   Partly Cloudy
2:00 AM 45 °F - 43 °F 88% 30.41 in 25 mi SW 8.9 mph - -   Scattered Clouds
2:00 AM 44.6 °F 39.7 °F 42.8 °F 93% 30.39 in 6.2 mi WSW 9.2 mph - N/A   Partly Cloudy
3:00 AM 47 °F - 44 °F 87% 30.40 in 25 mi WSW 8.9 mph - -  
4:00 AM 47 °F - 44 °F 86% 30.41 in 25 mi SW 8.9 mph - -  
5:00 AM 46 °F - 44 °F 91% 30.42 in 28 mi SW 8.9 mph - -   Scattered Clouds
5:00 AM 46.4 °F 41.9 °F 44.6 °F 93% 30.39 in 6.2 mi SW 9.2 mph - N/A   Mostly Cloudy
6:00 AM 46 °F - 44 °F 92% 30.44 in 28 mi SW 8.9 mph - -   Mostly Cloudy
6:00 AM 46.4 °F 41.9 °F 44.6 °F 93% 30.42 in 6.2 mi SW 9.2 mph - N/A   Mostly Cloudy
7:00 AM 48 °F - 45 °F 85% 30.44 in 28 mi SW 8.9 mph - -   Mostly Cloudy
7:00 AM 48.2 °F - 44.6 °F 87% 30.42 in 6.2 mi SW 8.1 mph - N/A   Mostly Cloudy
8:00 AM 50 °F - 46 °F 82% 30.45 in 28 mi SW 8.9 mph - -   Mostly Cloudy
8:00 AM 50.0 °F - 44.6 °F 82% 30.42 in 6.2 mi SW 8.1 mph - N/A   Mostly Cloudy
8:30 AM 51.8 °F - 46.4 °F 82% 30.45 in 6.2 mi SW 6.9 mph - N/A   Mostly Cloudy
9:00 AM 51 °F - 46 °F 78% 30.46 in 28 mi SSW 6.7 mph - -   Mostly Cloudy
9:00 AM 51.8 °F - 46.4 °F 82% 30.45 in 6.2 mi SSW 6.9 mph - N/A   Mostly Cloudy
9:30 AM 53.6 °F - 46.4 °F 77% 30.45 in 6.2 mi SW 9.2 mph - N/A   Mostly Cloudy
10:00 AM 53 °F - 47 °F 74% 30.47 in 28 mi WSW 11.2 mph - -   Mostly Cloudy
10:00 AM 53.6 °F - 48.2 °F 82% 30.45 in 6.2 mi SW 10.4 mph - N/A   Mostly Cloudy
10:30 AM 53.6 °F - 46.4 °F 77% 30.45 in 6.2 mi SW 11.5 mph - N/A   Mostly Cloudy
11:00 AM 54 °F - 48 °F 72% 30.48 in 25 mi SW 11.2 mph - -   Mostly Cloudy
11:00 AM 53.6 °F - 48.2 °F 82% 30.48 in 6.2 mi SW 11.5 mph - N/A   Mostly Cloudy
11:30 AM 51.8 °F - 50.0 °F 94% 30.48 in 4.3 mi WSW 12.7 mph - N/A Rain Light Rain
12:00 PM 53 °F - 49 °F 83% 30.50 in 5 mi SW 13.4 mph - - Rain Light Drizzle
12:00 PM 53.6 °F - 50.0 °F 88% 30.48 in 5.0 mi SW 12.7 mph - N/A   Light Drizzle
12:30 PM 53.6 °F - 50.0 °F 88% 30.48 in 6.2 mi SSW 12.7 mph - N/A   Light Drizzle
1:00 PM 54 °F - 49 °F 78% 30.49 in 19 mi SSW 15.7 mph - - Rain Light Drizzle
1:00 PM 55.4 °F - 50.0 °F 82% 30.48 in 6.2 mi SSW 15.0 mph - N/A   Mostly Cloudy
1:30 PM 55.4 °F - 50.0 °F 82% 30.48 in 6.2 mi SW 13.8 mph - N/A   Mostly Cloudy
2:00 PM 56 °F - 50 °F 74% 30.50 in 22 mi SW 15.7 mph - -   Mostly Cloudy
2:00 PM 55.4 °F - 50.0 °F 82% 30.48 in 6.2 mi SW 16.1 mph - N/A   Mostly Cloudy
2:30 PM 57.2 °F - 50.0 °F 77% 30.48 in 6.2 mi SW 17.3 mph - N/A   Mostly Cloudy
3:00 PM 58 °F - 52 °F 73% 30.50 in 25 mi SW 17.9 mph - -   Mostly Cloudy
3:00 PM 57.2 °F - 51.8 °F 82% 30.48 in 6.2 mi SW 17.3 mph - N/A   Mostly Cloudy
4:00 PM 58 °F - 52 °F 73% 30.50 in 25 mi SW 13.4 mph - -   Mostly Cloudy
4:00 PM 59.0 °F - 51.8 °F 77% 30.48 in 6.2 mi SW 12.7 mph - N/A   Scattered Clouds
4:30 PM 59.0 °F - 51.8 °F 77% 30.48 in 6.2 mi SW 10.4 mph - N/A   Scattered Clouds
5:00 PM 58 °F - 53 °F 76% 30.51 in 25 mi SW 11.2 mph - -   Mostly Cloudy
5:00 PM 59.0 °F - 51.8 °F 77% 30.48 in 6.2 mi SSW 10.4 mph - N/A   Mostly Cloudy
6:00 PM 58 °F - 53 °F 78% 30.51 in 25 mi SW 8.9 mph - -   Mostly Cloudy
6:00 PM 59.0 °F - 51.8 °F 77% 30.51 in 6.2 mi WSW 9.2 mph - N/A   Mostly Cloudy
7:00 PM 58 °F - 53 °F 79% 30.52 in 22 mi SW 8.9 mph - -   Mostly Cloudy
7:00 PM 57.2 °F - 51.8 °F 82% 30.51 in 6.2 mi SW 9.2 mph - N/A   Mostly Cloudy
8:00 PM 56 °F - 55 °F 94% 30.53 in 12 mi WSW 6.7 mph - - Rain Light Rain
8:00 PM 55.4 °F - 55.4 °F 100% 30.51 in 6.2 mi WSW 6.9 mph - N/A   Mostly Cloudy
9:00 PM 55 °F - 54 °F 95% 30.54 in 19 mi West 6.7 mph - -   Overcast
9:00 PM 55.4 °F - 53.6 °F 94% 30.54 in 6.2 mi West 6.9 mph - N/A   Overcast
10:00 PM 55 °F - 54 °F 93% 30.56 in 6 mi SW 6.7 mph - - Rain Light Drizzle
10:00 PM 55.4 °F - 53.6 °F 94% 30.54 in 6.2 mi SW 5.8 mph - N/A   Light Drizzle
11:00 PM 54 °F - 53 °F 95% 30.56 in 4 mi West 6.7 mph - - Rain Light Drizzle
11:00 PM 53.6 °F - 53.6 °F 100% 30.54 in 3.7 mi WSW 5.8 mph - N/A   Light Drizzle